Location: Hurecourt
(47.9030°N, 6.0653°E)
Time: 21:08:54
(UTC+00:00)

Resurs 1-4 Rocket - Pass Details

Date: 14 July 2020
Orbit: 799 x 814 km, 98.6° (Epoch: 14 August)

Event Time Altitude Azimuth Distance (km) Brightness Sun altitude
Rises 01:21:30 0° 14° (NNE) 3,350 7.0 -16.9°
Reaches altitude 10° 01:23:51 10° 15° (NNE) 2,412 5.9 -16.8°
Maximum altitude 01:29:12 88° 103° (ESE) 818 2.1 -16.4°
Enters shadow 01:32:22 25° 195° (SSW) 1,568 3.0 -16.2°
